OE4EXE Weather Reports


time (UTC)temp
F
wind
direction
speed
knots
gust
knots
rain 1hr
in
rain 24hr
in
rain mn
in
humidity
%
barometer
mb
20260507034803 58 129 1.7 5.2 0.00 0.00 0.00 73 1010.4
20260507034603 58 136 1.7 5.2 0.00 0.00 0.00 73 1010.5
20260507034404 58 133 2.6 5.2 0.00 0.00 0.00 73 1010.5
20260507034203 58 132 2.6 5.2 0.00 0.00 0.00 73 1010.5
20260507034003 58 127 2.6 5.2 0.00 0.00 0.00 73 1010.4
20260507033803 58 116 2.6 5.2 0.00 0.00 0.00 72 1010.4
20260507033603 58 101 2.6 4.3 0.00 0.00 0.00 72 1010.4
20260507033403 58 87 2.6 4.3 0.00 0.00 0.00 72 1010.2
20260507033203 58 88 2.6 4.3 0.00 0.00 0.00 73 1010.4
20260507032603 58 109 1.7 4.3 0.00 0.00 0.00 73 1010.3
20260507032003 58 115 1.7 3.5 0.00 0.00 0.00 73 1010.3
20260507031803 58 108 1.7 3.5 0.00 0.00 0.00 73 1010.2
20260507031603 58 95 1.7 3.5 0.00 0.00 0.00 73 1010.3
20260507031403 58 86 1.7 5.2 0.00 0.00 0.00 73 1010.2
20260507031203 58 90 1.7 5.2 0.00 0.00 0.00 73 1010.0
20260507031003 58 93 1.7 5.2 0.00 0.00 0.00 73 1010.1
20260507030603 58 104 1.7 5.2 0.00 0.00 0.00 73 1010.0
20260507030403 58 107 1.7 5.2 0.00 0.00 0.00 73 1010.2
20260507030203 58 105 1.7 6.1 0.00 0.00 0.00 73 1010.2
20260507030003 58 126 1.7 6.1 0.00 0.00 0.00 73 1010.3
20260507025803 58 112 2.6 6.1 0.00 0.00 0.00 73 1010.3
20260507025603 59 108 1.7 6.1 0.00 0.00 0.00 73 1010.3
20260507025403 59 118 1.7 6.1 0.00 0.00 0.00 72 1010.3
20260507025203 59 132 2.6 6.1 0.00 0.00 0.00 72 1010.4
20260507025003 59 112 2.6 6.1 0.00 0.00 0.00 72 1010.5
20260507024803 59 108 2.6 6.1 0.00 0.00 0.00 72 1010.2
20260507024603 59 101 2.6 6.1 0.00 0.00 0.00 71 1010.3
20260507024403 59 97 3.5 6.1 0.00 0.00 0.00 71 1010.1
20260507024203 59 86 2.6 5.2 0.00 0.00 0.00 71 1010.1
20260507024003 59 72 2.6 5.2 0.00 0.00 0.00 71 1010.2
20260507023803 59 66 1.7 5.2 0.00 0.00 0.00 71 1010.2
20260507023403 60 67 0.9 4.3 0.00 0.00 0.00 71 1010.2
20260507023203 60 63 1.7 4.3 0.00 0.00 0.00 70 1010.1
20260507023003 60 55 1.7 4.3 0.00 0.00 0.00 70 1010.0
20260507022803 60 44 1.7 4.3 0.00 0.00 0.00 70 1010.0
20260507022603 60 46 1.7 4.3 0.00 0.00 0.00 70 1010.1
20260507022403 60 45 1.7 4.3 0.00 0.00 0.00 69 1010.1
20260507022203 60 41 0.9 4.3 0.00 0.00 0.00 69 1010.0
20260507022003 60 39 0.9 2.6 0.00 0.00 0.00 69 1010.1
20260507021803 60 34 0.9 2.6 0.00 0.00 0.00 69 1009.9
20260507021603 60 23 0.9 2.6 0.00 0.00 0.00 69 1009.9
20260507021404 60 8 0.9 1.7 0.00 0.00 0.00 69 1009.9
20260507020803 60 332 0.9 3.5 0.00 0.00 0.00 69 1010.1
20260507020603 60 318 0.9 3.5 0.00 0.00 0.00 69 1010.0
20260507020203 60 310 0.9 3.5 0.00 0.00 0.00 68 1010.0
20260507020003 61 345 0.9 3.5 0.00 0.00 0.00 68 1010.0
20260507015603 60 61 0.0 1.7 0.00 0.00 0.00 69 1009.8
20260507015403 60 64 0.0 1.7 0.00 0.00 0.00 69 1009.8
20260507015203 60 315 0.0 3.5 0.00 0.00 0.00 69 1009.9
20260507015003 60 260 0.9 4.3 0.00 0.00 0.00 69 1009.8
20260507014803 60 270 1.7 4.3 0.00 0.00 0.00 69 1009.7
20260507014603 60 277 1.7 5.2 0.00 0.00 0.00 70 1010.0
20260507014403 60 284 2.6 5.2 0.00 0.00 0.00 70 1009.8
20260507014203 59 289 3.5 7.0 0.00 0.00 0.00 70 1009.8
20260507014003 59 297 4.3 7.0 0.00 0.00 0.00 70 1009.7
20260507013603 59 301 5.2 7.0 0.00 0.00 0.00 70 1009.8
20260507013203 60 299 5.2 7.0 0.00 0.00 0.00 69 1009.9
20260507013003 60 301 5.2 7.0 0.00 0.00 0.00 69 1009.7
20260507012803 60 300 4.3 7.8 0.00 0.00 0.00 69 1009.7
20260507012603 60 303 4.3 7.8 0.00 0.00 0.00 68 1009.7
20260507012403 60 307 4.3 7.8 0.00 0.00 0.00 68 1009.6
20260507012203 61 309 5.2 8.7 0.00 0.00 0.00 67 1009.7
20260507011803 61 280 4.3 8.7 0.00 0.00 0.00 66 1009.8
20260507011603 61 266 4.3 10.4 0.00 0.00 0.00 66 1009.6
20260507011403 61 258 4.3 10.4 0.00 0.00 0.00 66 1009.7
20260507011203 61 251 4.3 10.4 0.00 0.00 0.00 66 1009.6
20260507011003 61 252 4.3 10.4 0.00 0.00 0.00 66 1009.3
20260507010803 61 249 4.3 10.4 0.00 0.00 0.00 66 1009.5
20260507010603 61 247 4.3 10.4 0.00 0.00 0.00 66 1009.3
20260507010403 61 245 5.2 9.6 0.00 0.00 0.00 66 1009.5
20260507010203 61 236 5.2 9.6 0.00 0.00 0.00 66 1009.3
20260507010003 61 231 5.2 11.3 0.00 0.00 0.00 66 1009.3
20260507005803 61 232 5.2 11.3 0.00 0.00 0.00 66 1009.2
20260507005603 61 229 5.2 11.3 0.00 0.00 0.00 65 1009.3
20260507005403 61 230 5.2 11.3 0.00 0.00 0.00 65 1009.3
20260507004803 62 250 6.1 13.9 0.00 0.00 0.00 65 1009.2
20260507004403 62 245 7.0 13.9 0.00 0.00 0.00 65 1009.3
20260507004203 62 241 6.1 13.9 0.00 0.00 0.00 65 1009.2
20260507003803 62 230 7.0 12.2 0.00 0.00 0.00 65 1009.0
20260507003403 62 231 7.0 12.2 0.00 0.00 0.00 65 1009.3
20260507003203 62 224 7.0 12.2 0.00 0.00 0.00 65 1009.2
20260507003003 61 225 7.0 12.2 0.00 0.00 0.00 65 1009.1
20260507002803 61 228 6.1 12.2 0.00 0.00 0.00 66 1009.4
20260507002603 61 230 6.1 12.2 0.00 0.00 0.00 65 1009.3
20260507002403 61 232 6.1 12.2 0.00 0.00 0.00 65 1009.3
20260507002003 62 227 6.1 12.2 0.00 0.00 0.00 65 1009.1
20260507001803 61 233 6.1 12.2 0.00 0.00 0.00 65 1009.1
20260507001603 61 234 5.2 10.4 0.00 0.00 0.00 65 1009.3
20260507001403 61 236 5.2 10.4 0.00 0.00 0.00 66 1009.2
20260507001203 61 241 5.2 10.4 0.00 0.00 0.00 65 1009.3
20260507001003 61 245 6.1 10.4 0.00 0.00 0.00 65 1009.3
20260507000603 62 240 6.1 11.3 0.00 0.00 0.00 65 1009.3
20260507000405 62 236 7.0 11.3 0.00 0.00 0.00 65 1009.3
20260507000205 62 233 7.0 11.3 0.00 0.00 0.00 65 1009.3
20260507000003 62 236 6.1 11.3 0.00 0.00 0.00 65 1009.0
20260506235603 62 237 5.2 10.4 0.00 0.00 0.00 65 1009.2
20260506235003 62 246 5.2 10.4 0.00 0.00 0.00 65 1009.2
20260506234603 62 256 4.3 9.6 0.00 0.00 0.00 64 1009.3
20260506234403 62 253 4.3 9.6 0.00 0.00 0.00 64 1009.1
20260506234203 62 254 4.3 9.6 0.00 0.00 0.00 64 1009.3
20260506234003 62 252 4.3 9.6 0.00 0.00 0.00 64 1009.3
20260506233803 62 246 4.3 10.4 0.00 0.00 0.00 64 1009.2
20260506233603 62 247 5.2 11.3 0.00 0.00 0.00 64 1009.3
20260506233403 62 246 5.2 11.3 0.00 0.00 0.00 64 1009.2
20260506233203 62 246 5.2 11.3 0.00 0.00 0.00 64 1009.1
20260506233003 62 243 6.1 11.3 0.00 0.00 0.00 64 1009.2
20260506232603 62 245 6.1 11.3 0.00 0.00 0.00 64 1009.3
20260506232003 62 266 4.3 9.6 0.00 0.00 0.00 64 1009.2
20260506231803 62 271 4.3 9.6 0.00 0.00 0.00 64 1009.3
20260506231603 62 271 4.3 10.4 0.00 0.00 0.00 64 1009.4
20260506231403 62 264 4.3 10.4 0.00 0.00 0.00 64 1009.3
20260506231203 62 259 4.3 10.4 0.00 0.00 0.00 64 1009.1
20260506231003 62 249 5.2 10.4 0.00 0.00 0.00 64 1009.2
20260506230403 62 236 4.3 9.6 0.00 0.00 0.00 64 1009.2
20260506230203 62 234 4.3 9.6 0.00 0.00 0.00 65 1009.3
20260506230003 62 239 3.5 7.0 0.00 0.00 0.00 65 1009.3
20260506225803 62 249 2.6 4.3 0.00 0.00 0.00 65 1009.2
20260506225603 62 259 2.6 4.3 0.00 0.00 0.00 65 1009.3
20260506225403 62 266 1.7 4.3 0.00 0.00 0.00 65 1009.2
20260506225203 62 264 2.6 4.3 0.00 0.00 0.00 65 1009.1
20260506224803 62 267 2.6 6.1 0.00 0.00 0.00 65 1009.2
20260506224603 62 250 2.6 6.1 0.00 0.00 0.00 65 1009.1
20260506224403 62 243 2.6 6.1 0.00 0.00 0.00 64 1009.1
20260506224203 62 239 3.5 7.8 0.00 0.00 0.00 64 1009.1
20260506224003 62 239 3.5 7.8 0.00 0.00 0.00 64 1009.0
20260506223803 62 236 3.5 7.8 0.00 0.00 0.00 64 1008.9
20260506223603 62 235 4.3 9.6 0.00 0.00 0.00 64 1009.2
20260506223403 62 235 4.3 9.6 0.00 0.00 0.00 64 1009.0
20260506223203 63 237 4.3 9.6 0.00 0.00 0.00 64 1009.0
20260506223003 63 233 5.2 11.3 0.00 0.00 0.00 64 1008.8
20260506222603 63 228 7.0 12.2 0.00 0.00 0.00 63 1008.8
20260506222403 63 226 7.0 12.2 0.00 0.00 0.00 63 1008.8
20260506222203 63 220 7.0 12.2 0.00 0.00 0.00 63 1008.8
20260506222003 63 215 7.8 13.0 0.00 0.00 0.00 63 1008.6
20260506221803 63 216 7.8 13.0 0.00 0.00 0.00 63 1008.5
20260506221603 63 211 7.8 13.9 0.00 0.00 0.00 63 1008.5
20260506221403 63 209 8.7 16.5 0.00 0.00 0.00 63 1008.5
20260506221203 63 216 8.7 16.5 0.00 0.00 0.00 63 1008.5
20260506221003 63 220 7.8 16.5 0.00 0.00 0.00 63 1008.4
20260506220803 63 216 7.8 16.5 0.00 0.00 0.00 63 1008.4
20260506220603 63 226 7.8 16.5 0.00 0.00 0.00 62 1008.6
20260506220203 64 228 7.8 14.8 0.00 0.00 0.00 62 1008.5
20260506220003 64 231 8.7 14.8 0.00 0.00 0.00 62 1008.5
20260506215803 64 234 7.8 14.8 0.00 0.00 0.00 62 1008.4
20260506215603 64 232 7.8 13.9 0.00 0.00 0.00 62 1008.8
20260506215403 64 231 8.7 13.9 0.00 0.00 0.00 62 1008.4
20260506215003 64 217 8.7 13.9 0.00 0.00 0.00 62 1008.5
20260506214803 64 217 7.8 13.9 0.00 0.00 0.00 62 1008.4
20260506214603 64 218 7.8 14.8 0.00 0.00 0.00 62 1008.6
20260506214203 64 226 7.8 14.8 0.00 0.00 0.00 62 1008.5
20260506214003 64 229 7.8 14.8 0.00 0.00 0.00 61 1008.5
20260506213803 64 230 7.8 14.8 0.00 0.00 0.00 61 1008.6
20260506213603 64 228 7.8 16.5 0.00 0.00 0.00 61 1008.4
20260506213403 64 230 7.8 16.5 0.00 0.00 0.00 61 1008.3
20260506213203 64 231 7.0 16.5 0.00 0.00 0.00 61 1008.3
20260506213003 64 230 7.0 16.5 0.00 0.00 0.00 61 1008.4
20260506212803 64 225 7.0 16.5 0.00 0.00 0.00 61 1008.4
20260506212603 64 222 7.8 16.5 0.00 0.00 0.00 61 1008.5
20260506212403 64 217 7.8 14.8 0.00 0.00 0.00 61 1008.4
20260506212203 64 214 7.8 15.6 0.00 0.00 0.00 61 1008.3
20260506212003 64 209 7.8 15.6 0.00 0.00 0.00 61 1008.2
20260506211803 64 215 8.7 15.6 0.00 0.00 0.00 61 1008.3
20260506211603 65 216 8.7 16.5 0.00 0.00 0.00 61 1008.4
20260506211203 65 221 9.6 16.5 0.00 0.00 0.00 60 1008.2
20260506211003 65 227 8.7 16.5 0.00 0.00 0.00 60 1008.1